Weather reports worldwide

Advertisment
Verhnedvinsk, Belarus (26554): temperature & dewpoint: 03.08.2020 23:00:00 - 09.08.2020 23:00:00 (MSK)Verhnedvinsk, Belarus (26554): wind speed: 03.08.2020 23:00:00 - 09.08.2020 23:00:00 (MSK)Verhnedvinsk, Belarus (26554): wind direction: 03.08.2020 23:00:00 - 09.08.2020 23:00:00 (MSK)Verhnedvinsk, Belarus (26554): reduced air pressure: 03.08.2020 23:00:00 - 09.08.2020 23:00:00 (MSK)Verhnedvinsk, Belarus (26554): visibility: 03.08.2020 23:00:00 - 09.08.2020 23:00:00 (MSK)
Date & Time tt [°C] td [°C] ff [km/h] ff [kn] dd ppp [hPa] vv [km]
09.08.2020 23:00:00 - - - - - - -
09.08.2020 22:00:00 - - - - - - -
09.08.2020 21:00:00 20,7 16,9 4 2 NNE 1018,1 10
09.08.2020 20:00:00 - - - - - - -
09.08.2020 19:00:00 - - - - - - -
09.08.2020 18:00:00 26,9 16,5 4 2 NW 1017,8 15
09.08.2020 17:00:00 - - - - - - -
09.08.2020 16:00:00 - - - - - - -
09.08.2020 15:00:00 26,4 16,3 7 4 NNW 1019,1 15
09.08.2020 14:00:00 - - - - - - -
09.08.2020 13:00:00 - - - - - - -
09.08.2020 12:00:00 24,1 15,9 4 2 N 1020,4 15
09.08.2020 11:00:00 - - - - - - -
09.08.2020 10:00:00 - - - - - - -
09.08.2020 09:00:00 23,0 17,7 4 2 E 1020,7 10
09.08.2020 08:00:00 - - - - - - -
09.08.2020 07:00:00 - - - - - - -
09.08.2020 06:00:00 14,8 14,8 0 0 N 1021,2 3,2
09.08.2020 05:00:00 - - - - - - -
09.08.2020 04:00:00 - - - - - - -
09.08.2020 03:00:00 15,4 15,1 0 0 N 1021,5 6
09.08.2020 02:00:00 - - - - - - -
09.08.2020 01:00:00 - - - - - - -
09.08.2020 00:00:00 16,8 16,2 0 0 N 1021,5 12
08.08.2020 23:00:00 - - - - - - -
08.08.2020 22:00:00 - - - - - - -
08.08.2020 21:00:00 20,4 17,0 0 0 N 1021,5 15
08.08.2020 20:00:00 - - - - - - -
08.08.2020 19:00:00 - - - - - - -
08.08.2020 18:00:00 25,6 15,6 7 4 NW 1022,1 20
08.08.2020 17:00:00 - - - - - - -
08.08.2020 16:00:00 - - - - - - -
08.08.2020 15:00:00 25,5 15,5 7 4 N 1023,5 20
08.08.2020 14:00:00 - - - - - - -
08.08.2020 13:00:00 - - - - - - -
08.08.2020 12:00:00 23,0 17,5 7 4 NW 1025,2 20
08.08.2020 11:00:00 - - - - - - -
08.08.2020 10:00:00 - - - - - - -
08.08.2020 09:00:00 19,6 17,2 0 0 N 1026,2 15
08.08.2020 08:00:00 - - - - - - -
08.08.2020 07:00:00 - - - - - - -
08.08.2020 06:00:00 15,9 15,7 0 0 N 1026,1 7
08.08.2020 05:00:00 - - - - - - -
08.08.2020 04:00:00 - - - - - - -
08.08.2020 03:00:00 15,0 14,7 0 0 N 1026,7 8
08.08.2020 02:00:00 - - - - - - -
08.08.2020 01:00:00 - - - - - - -
08.08.2020 00:00:00 16,8 15,8 0 0 N 1025,7 12
07.08.2020 23:00:00 - - - - - - -
07.08.2020 22:00:00 - - - - - - -
07.08.2020 21:00:00 20,8 16,8 4 2 N 1025,9 14
07.08.2020 20:00:00 - - - - - - -
07.08.2020 19:00:00 - - - - - - -
07.08.2020 18:00:00 26,1 15,5 7 4 NW 1025,9 19
07.08.2020 17:00:00 - - - - - - -
07.08.2020 16:00:00 - - - - - - -
07.08.2020 15:00:00 26,3 15,4 14 8 NW 1026,7 20
07.08.2020 14:00:00 - - - - - - -
07.08.2020 13:00:00 - - - - - - -
07.08.2020 12:00:00 24,4 15,3 11 6 WSW 1027,7 20
07.08.2020 11:00:00 - - - - - - -
07.08.2020 10:00:00 - - - - - - -
07.08.2020 09:00:00 19,3 16,3 4 2 W 1028,6 18
07.08.2020 08:00:00 - - - - - - -
07.08.2020 07:00:00 - - - - - - -
07.08.2020 06:00:00 13,0 12,8 0 0 N 1028,1 6
07.08.2020 05:00:00 - - - - - - -
07.08.2020 04:00:00 - - - - - - -
07.08.2020 03:00:00 14,4 13,8 0 0 N 1027,7 10
07.08.2020 02:00:00 - - - - - - -
07.08.2020 01:00:00 - - - - - - -
07.08.2020 00:00:00 15,2 14,4 0 0 N 1027,3 10
06.08.2020 23:00:00 - - - - - - -
06.08.2020 22:00:00 - - - - - - -
06.08.2020 21:00:00 19,2 13,8 0 0 N 1026,1 15
06.08.2020 20:00:00 - - - - - - -
06.08.2020 19:00:00 - - - - - - -
06.08.2020 18:00:00 24,0 12,0 7 4 NNW 1025,2 20
06.08.2020 17:00:00 - - - - - - -
06.08.2020 16:00:00 - - - - - - -
06.08.2020 15:00:00 24,0 13,2 7 4 W 1025,3 20
06.08.2020 14:00:00 - - - - - - -
06.08.2020 13:00:00 - - - - - - -
06.08.2020 12:00:00 22,4 13,2 7 4 WSW 1025,2 15
06.08.2020 11:00:00 - - - - - - -
06.08.2020 10:00:00 - - - - - - -
06.08.2020 09:00:00 17,4 13,5 7 4 NNW 1024,7 10
06.08.2020 08:00:00 - - - - - - -
06.08.2020 07:00:00 - - - - - - -
06.08.2020 06:00:00 12,3 12,1 4 2 WSW 1023,8 6
06.08.2020 05:00:00 - - - - - - -
06.08.2020 04:00:00 - - - - - - -
06.08.2020 03:00:00 13,8 13,6 4 2 SW 1022,5 1,8
06.08.2020 02:00:00 - - - - - - -
06.08.2020 01:00:00 - - - - - - -
06.08.2020 00:00:00 15,0 14,7 4 2 WSW 1021,1 10
05.08.2020 23:00:00 - - - - - - -
05.08.2020 22:00:00 - - - - - - -
05.08.2020 21:00:00 17,8 14,9 0 0 N 1019,9 10
05.08.2020 20:00:00 - - - - - - -
05.08.2020 19:00:00 - - - - - - -
05.08.2020 18:00:00 22,9 15,0 7 4 NW 1018,2 15
05.08.2020 17:00:00 - - - - - - -
05.08.2020 16:00:00 - - - - - - -
05.08.2020 15:00:00 20,1 16,9 7 4 W 1017,9 15
05.08.2020 14:00:00 - - - - - - -
05.08.2020 13:00:00 - - - - - - -
05.08.2020 12:00:00 19,3 16,5 14 8 WNW 1016,4 15
05.08.2020 11:00:00 - - - - - - -
05.08.2020 10:00:00 - - - - - - -
05.08.2020 09:00:00 18,3 17,5 11 6 WNW 1014,1 10
05.08.2020 08:00:00 - - - - - - -
05.08.2020 07:00:00 - - - - - - -
05.08.2020 06:00:00 16,8 16,6 0 0 N 1012,3 6
05.08.2020 05:00:00 - - - - - - -
05.08.2020 04:00:00 - - - - - - -
05.08.2020 03:00:00 17,4 16,9 7 4 E 1010,7 10
05.08.2020 02:00:00 - - - - - - -
05.08.2020 01:00:00 - - - - - - -
05.08.2020 00:00:00 18,0 16,5 4 2 NW 1011,3 15
04.08.2020 23:00:00 - - - - - - -
04.08.2020 22:00:00 - - - - - - -
04.08.2020 21:00:00 21,0 16,0 4 2 N 1010,7 15
04.08.2020 20:00:00 - - - - - - -
04.08.2020 19:00:00 - - - - - - -
04.08.2020 18:00:00 24,1 14,8 11 6 SSE 1009,7 15
04.08.2020 17:00:00 - - - - - - -
04.08.2020 16:00:00 - - - - - - -
04.08.2020 15:00:00 25,8 14,3 14 8 SSE 1010,0 18
04.08.2020 14:00:00 - - - - - - -
04.08.2020 13:00:00 - - - - - - -
04.08.2020 12:00:00 23,3 14,3 11 6 SE 1010,7 18
04.08.2020 11:00:00 - - - - - - -
04.08.2020 10:00:00 - - - - - - -
04.08.2020 09:00:00 19,4 13,3 11 6 SSE 1011,7 15
04.08.2020 08:00:00 - - - - - - -
04.08.2020 07:00:00 - - - - - - -
04.08.2020 06:00:00 15,2 13,0 0 0 N 1012,0 15
04.08.2020 05:00:00 - - - - - - -
04.08.2020 04:00:00 - - - - - - -
04.08.2020 03:00:00 17,0 12,1 7 4 SSE 1012,0 12
04.08.2020 02:00:00 - - - - - - -
04.08.2020 01:00:00 - - - - - - -
04.08.2020 00:00:00 18,3 13,0 7 4 SSE 1011,4 15
03.08.2020 23:00:00 - - - - - - -

tt = temperature
td = dewpoint
ff = wind speed
dd = wind direction
ppp = reduced air pressure
vv = visibility

Next stations